Location: Newark
(31.5350°N, 35.0986°E)
Time: 20:13:47
(UTC+00:00)

Vanguard 1 - Pass Details

Date: 22 September 2019
Orbit: 653 x 3830 km, 34.3° (Epoch: 14 October)

Event Time Altitude Azimuth Distance (km) Brightness Sun altitude
Rises 00:45:07 0° 259° (W) 7,814 - -34.4°
Reaches altitude 10° 00:50:19 10° 260° (W) 6,900 - -33.4°
Exits shadow 01:02:30 40° 265° (W) 4,784 13.0 -31.0°
Maximum altitude 01:14:19 84° 351° (N) 3,375 12.6 -28.6°
Drops below altitude 10° 01:30:29 10° 81° (E) 4,956 14.7 -25.4°
Sets 01:33:32 0° 82° (E) 5,626 15.3 -24.8°
